Weather in Ellos

Sweden     58°10′36″N   11°28′23″E
temp.,
°C
wind,
m/s
gust,
m/s
humid.,
%
clouds,
%
prec.,
mm/h
press.,
hPa
HPBL,
m
26 june, sun
sun2623:00+18nne118637 0.0 101411
02:00+18se338856 0.1 101520
05:00+17e229398 0.1 101520
08:00+18ese348894 0.2 101676
11:00+19ese348370 0.6 1015103
14:00+17wsw1396100 3.6 101548
17:00+20s2485100 3.6 1015267
20:00+18s2288100 3.6 101559
27 june, mon
mon2723:00+17ssw459576 0.3 101688
02:00+16nw1195100 0.3 101714
05:00+16nw0194100 0.0 101712
08:00+18ne239078 0.4 1017104
11:00+20ene2385100 0.1 1016151
14:00+19wnw658388 2.6 1015262
17:00+19wnw128757 1.1 1013130
20:00+17se239685 3.6 101472
28 june, tue
tue2823:00+16wnw5596100 1.2 1014239
02:00+15nnw2297100 16.8 1014157
05:00+15wsw5693100 2.1 1015415
08:00+15w6882100 2.1 1016502
11:00+15wsw7982100 0.6 1017451
14:00+16wsw811775 0.6 1018570
17:00+17wsw811730 0.0 1019540
20:00+16sw610751 0.0 1019412
29 june, wed
wed2923:00+16sw61081100 0.0 1020419
02:00+15sw578425 0.0 1020334
05:00+15sw3480100 0.0 1020279
08:00+16ssw237188 0.0 1021365
11:00+16sw33645 0.0 1022372
14:00+16w22610 0.0 1021309
17:00+17nw335814 0.0 1020178
20:00+18nnw4564100 0.0 101885
30 june, thu
thu3023:00+17nne3469100 0.0 101854
02:00+16ne356993 0.0 101779
05:00+16ene5106974 0.0 1016203
08:00+18ese5773100 0.0 1015204
11:00+18sse2276100 0.0 101633
14:00+20n1361100 0.0 1015419
17:00+20sw1368100 0.0 1014369
20:00+18ese3481100 0.0 1014157